{"data":{"norad_id":45744,"intl_designator":"2020-038Q","name":"STARLINK-1500","alt_names":[],"object_type":"PAYLOAD","status":"ACTIVE","operator":null,"country":"US","launch_date":"2020-06-13","launch_site_code":"AFETR","launch_vehicle":null,"mission":null,"orbit_class":"UNKNOWN","rcs_meters":null,"size_class":null,"mass_kg":null,"dimensions":null,"purposes":["comms"],"wikipedia_slug":null,"has_3d_model":false,"image_url":null,"decayed_at":null,"tle_current":{"epoch":"2026-05-25T03:46:42.204288Z","epoch_age_seconds":64970,"freshness":"FRESH","line1":"1 45744U 20038Q   26145.15743292  .00018897  00000+0  49932-3 0  9990","line2":"2 45744  53.0338 192.9569 0002160  97.4643 262.6605 15.38482116328572","mean_motion":15.38482116,"eccentricity":0.000216,"inclination_deg":53.0338,"raan_deg":192.9569,"arg_perigee_deg":97.4643,"mean_anomaly_deg":262.6605,"bstar":0.00049932,"rev_number":32857,"period_min":93.598748079305,"perigee_km":449.12215980077,"apogee_km":452.07217296065,"semimajor_km":6828.7341663807,"source":"CELESTRAK","updated_at":"2026-05-25T13:38:16.433006Z"}}}